{"data":{"norad_id":63952,"epoch":"2026-09-20T02:06:42.745536Z","epoch_age_seconds":182660,"freshness":"STALE","line1":"1 63952U 25099A   26263.08799474  .00011318  00000+0  42004-3 0  9993","line2":"2 63952  43.0027 158.6565 0001124 284.0644  76.0082 15.27591844 77053","mean_motion":15.27591844,"eccentricity":0.0001124,"inclination_deg":43.0027,"raan_deg":158.6565,"arg_perigee_deg":284.0644,"mean_anomaly_deg":76.0082,"bstar":0.00042004,"rev_number":7705,"period_min":94.266017827731,"perigee_km":482.24243774101,"apogee_km":483.78482440287,"semimajor_km":6861.1506310719,"source":"CELESTRAK","updated_at":"2026-09-21T09:00:35.173658Z"}}